Weather History for 08221 - December, 2013

Change the Weather History Date:

Sunday, December 8, 2013

  Actual Average Record
Temperature  
Mean Temperature 40 °F -  
Max Temperature 57 °F 49 °F - ()
Min Temperature 23 °F 32 °F - ()
Degree Days  
Heating Degree Days 25    
Moisture  
Dew Point 24 °F    
Average Humidity 63    
Maximum Humidity 86    
Minimum Humidity 19    
Precipitation  
Precipitation 0.00 in 0.06 in - ()
Sea Level Pressure  
Sea Level Pressure 30.33 in    
Wind  
Wind Speed 3 mph ()    
Max Wind Speed 6 mph    
Max Gust Speed -    
Visibility 15.9 miles    
Events      
T = Trace of Precipitation, MM = Missing Value Source: Averaged Metar Reports

Daily Weather History Graph

Daily Weather History Graph

Search for Another Location

Airport or City:

Trip Planner

Search our weather history database for the weather conditions in past years. The results will help you decide how hot, cold, wet, or windy it might be!

Date:

Astronomy

Dec. 08, 2013 Rise Set
Actual Time 8:24 AM CET 5:47 PM CET
Civil Twilight 7:54 AM CET 6:18 PM CET
Nautical Twilight 7:20 AM CET 6:52 PM CET
Astronomical Twilight 6:47 AM CET 7:25 PM CET
Moon 12:36 PM CET (12/8) No Moon Set
Length of Visible Light 10h 23m
Length of Day
9h 22m
Waxing Crescent, 37% of the Moon is Illuminated
Dec 8
Waxing Crescent
Dec 9
First Quarter
Dec 17
Full
Dec 25
Last Quarter
Jan 1
New

Hourly Weather History & Observations

Time (CET) Temp. Windchill Dew Point Humidity Pressure Visibility Wind Dir Wind Speed Gust Speed Precip Events Conditions
12:00 AM 31 °F - 25 °F 70% 30.40 in 12 mi North 4.6 mph - -  
12:00 AM 32.0 °F 27.5 °F 24.8 °F 75% 30.27 in - North 4.6 mph - N/A   Clear
12:30 AM 30.2 °F 24.3 °F 24.8 °F 80% 30.30 in - North 5.8 mph - N/A   Clear
1:00 AM 31 °F - 24 °F 66% 30.40 in 17 mi North 2.3 mph - -  
1:00 AM 30.2 °F - 23.0 °F 75% 30.30 in - Variable 2.3 mph - N/A   Clear
1:30 AM 28.4 °F - 23.0 °F 80% 30.30 in - North 2.3 mph - N/A   Clear
2:00 AM 29 °F - 24 °F 74% 30.41 in 16 mi North 4.6 mph - -  
2:00 AM 28.4 °F 23.3 °F 23.0 °F 80% 30.27 in - North 4.6 mph - N/A   Clear
2:30 AM 26.6 °F 22.6 °F 23.0 °F 86% 30.27 in - North 3.5 mph - N/A   Clear
3:00 AM 28 °F - 24 °F 77% 30.40 in 16 mi NNW 4.6 mph - -  
3:00 AM 28.4 °F 24.6 °F 23.0 °F 80% 30.27 in - NNW 3.5 mph - N/A   Clear
3:30 AM 28.4 °F - 23.0 °F 80% 30.27 in - Variable 2.3 mph - N/A   Clear
4:00 AM 26.6 °F - 23.0 °F 86% 30.27 in - NNE 1.2 mph - N/A   Clear
4:30 AM 24.8 °F - 21.2 °F 86% 30.27 in - NNE 2.3 mph - N/A   Clear
5:00 AM 26 °F - 22 °F 76% 30.41 in 13 mi North 3.5 mph - -  
5:00 AM 24.8 °F - 21.2 °F 86% 30.27 in - North 2.3 mph - N/A   Clear
5:30 AM 26.6 °F - 23.0 °F 86% 30.27 in - Calm Calm - N/A   Clear
6:00 AM 26 °F - 22 °F 81% 30.41 in 16 mi Calm Calm - -  
6:00 AM 24.8 °F - 21.2 °F 86% 30.27 in - Calm Calm - N/A   Clear
6:30 AM 24.8 °F - 21.2 °F 86% 30.27 in - North 1.2 mph - N/A   Clear
7:00 AM 25 °F - 22 °F 84% 30.43 in 12 mi North 4.6 mph - -  
7:00 AM 24.8 °F 20.5 °F 21.2 °F 86% 30.30 in - North 3.5 mph - N/A   Clear
7:30 AM 24.8 °F 20.5 °F 21.2 °F 86% 30.30 in - North 3.5 mph - N/A   Clear
8:00 AM 25 °F - 22 °F 81% 30.45 in 16 mi North 3.5 mph - -  
8:00 AM 24.8 °F - 21.2 °F 86% 30.30 in - North 2.3 mph - N/A   Clear
8:30 AM 23.0 °F - 19.4 °F 86% 30.30 in - Variable 1.2 mph - N/A   Clear
9:00 AM 24 °F - 21 °F 84% 30.46 in 13 mi North 4.6 mph - -  
9:00 AM 23.0 °F 17.0 °F 19.4 °F 86% 30.33 in - North 4.6 mph - N/A   Clear
9:30 AM 26.6 °F 22.6 °F 23.0 °F 86% 30.33 in - North 3.5 mph - N/A   Clear
10:00 AM 28.4 °F 24.6 °F 23.0 °F 80% 30.33 in - NNW 3.5 mph - N/A   Clear
10:30 AM 32.0 °F - 24.8 °F 75% 30.33 in - Variable 2.3 mph - N/A   Clear
11:00 AM 36 °F - 26 °F 57% 30.43 in 16 mi NNW 3.5 mph - -  
11:00 AM 35.6 °F 32.8 °F 26.6 °F 70% 30.33 in - NNW 3.5 mph - N/A   Clear
11:30 AM 39.2 °F - 26.6 °F 61% 30.33 in - North 1.2 mph - N/A   Clear
12:00 PM 44 °F - 28 °F 41% 30.40 in 15 mi West 2.3 mph - -  
12:00 PM 42.8 °F - 26.6 °F 53% 30.33 in - Variable 2.3 mph - N/A   Clear
12:30 PM 44.6 °F - 26.6 °F 49% 30.33 in - Variable 2.3 mph - N/A   Clear
1:00 PM 48 °F - 28 °F 34% 30.35 in 19 mi SSW 2.3 mph - -  
1:00 PM 48.2 °F - 26.6 °F 43% 30.33 in - SSW 2.3 mph - N/A   Clear
1:30 PM 50.0 °F - 26.6 °F 40% 30.30 in - South 2.3 mph - N/A   Clear
2:00 PM 52 °F - 28 °F 26% 30.32 in 19 mi SSW 2.3 mph - -  
2:00 PM 51.8 °F - 26.6 °F 38% 30.30 in - SSW 2.3 mph - N/A   Clear
2:30 PM 51.8 °F - 26.6 °F 38% 30.30 in - Variable 2.3 mph - N/A   Clear
3:00 PM 55 °F - 27 °F 22% 30.29 in 12 mi SSW 2.3 mph - -  
3:00 PM 53.6 °F - 24.8 °F 33% 30.30 in - South 2.3 mph - N/A   Clear
3:30 PM 55.4 °F - 24.8 °F 31% 30.27 in - South 1.2 mph - N/A   Clear
4:00 PM 55.4 °F - 24.8 °F 31% 30.27 in - Variable 2.3 mph - N/A   Clear
4:30 PM 57.2 °F - 26.6 °F 31% 30.27 in - Calm Calm - N/A   Clear
5:00 PM 56 °F - 26 °F 19% 30.28 in 19 mi South 2.3 mph - -  
5:00 PM 53.6 °F - 24.8 °F 33% 30.27 in - Variable 2.3 mph - N/A   Clear
5:30 PM 53.6 °F - 24.8 °F 33% 30.30 in - South 3.5 mph - N/A   Clear
6:00 PM 49 °F - 26 °F 28% 30.32 in 19 mi South 3.5 mph - -  
6:00 PM 50.0 °F - 24.8 °F 37% 30.30 in - South 3.5 mph - N/A   Clear
6:30 PM 50.0 °F - 24.8 °F 37% 30.30 in - Variable 2.3 mph - N/A   Clear
7:00 PM 43 °F - 27 °F 40% 30.36 in 19 mi SW 1.2 mph - -  
7:00 PM 44.6 °F - 26.6 °F 49% 30.30 in - Variable 2.3 mph - N/A   Clear
7:30 PM 41.0 °F - 26.6 °F 57% 30.30 in - North 2.3 mph - N/A   Clear
8:00 PM 39 °F - 26 °F 48% 30.39 in 19 mi NNW 3.5 mph - -  
8:00 PM 37.4 °F 34.9 °F 26.6 °F 65% 30.33 in - North 3.5 mph - N/A   Clear
8:30 PM 35.6 °F 32.8 °F 24.8 °F 65% 30.33 in - North 3.5 mph - N/A   Clear
9:00 PM 35 °F - 26 °F 58% 30.43 in 19 mi NNW 3.5 mph - -  
9:00 PM 35.6 °F 32.8 °F 24.8 °F 65% 30.33 in - North 3.5 mph - N/A   Clear
9:30 PM 35.6 °F 32.8 °F 26.6 °F 70% 30.33 in - North 3.5 mph - N/A   Clear
10:00 PM 33.8 °F 30.8 °F 26.6 °F 75% 30.33 in - North 3.5 mph - N/A   Clear
10:30 PM 32.0 °F 26.4 °F 24.8 °F 75% 30.36 in - North 5.8 mph - N/A   Clear
11:00 PM 32 °F - 25 °F 68% 30.47 in 11 mi NNW 5.8 mph - -  
11:00 PM 32.0 °F 26.4 °F 24.8 °F 75% 30.36 in - NNW 5.8 mph - N/A   Clear
11:30 PM 32.0 °F 27.5 °F 24.8 °F 75% 30.36 in - North 4.6 mph - N/A   Clear